Regional Weather Roundup
Issued by NWS Columbia, SC

Home | Current Version | Previous Version | Text Only | Print | Product List | Glossary On
Versions: 1 2 3 4 5 6 7 8 9 10 11 12 13 14 15 16 17 18 19 20 21 22 23 24 25 26 27 28 29 30 31 32 33 34 35 36 37 38 39 40 41 42 43 44 45 46 47 48 49 50
000
ASUS42 KCAE 080210
RWRCAE
REGIONAL WEATHER ROUNDUP
NATIONAL WEATHER SERVICE COLUMBIA SC
1000 PM EDT TUE JUL 07 2015

NOTE: "FAIR" INDICATES FEW OR NO CLOUDS BELOW 12,000 FEET WITH NO
SIGNIFICANT WEATHER AND/OR OBSTRUCTIONS TO VISIBILITY.

NOT ALL STATIONS ARE QUALITY CONTROLLED BY THE NATIONAL
WEATHER SERVICE. USE DATA WITH CAUTION...ESPECIALLY
DEWPOINT OBSERVATIONS.

SCZ001>056-GAZ040-063>065-077-080300-
...UPSTATE SOUTH CAROLINA...

CITY           SKY/WX    TMP DP  RH WIND       PRES   REMARKS
ANDERSON       MOCLDY    78  71  79 S5        30.13R
SPARTANBURG      N/A     82  70  65 CALM      30.11R
CLEMSON        MOCLDY    83  69  62 SW3       30.14R
GREENVILLE     MOCLDY    83  68  60 SW5       30.13R
GREENWOOD      MOCLDY    79  71  76 CALM      30.14R
GREER          MOCLDY    81  69  67 S6        30.11R
ROCK HILL      PTCLDY    80  67  64 SW7       30.11R
CHESTER        PTCLDY    81  64  57 S3        30.12R
LAURENS        MOCLDY    79  75  89 CALM      30.12R


...CENTRAL SOUTH CAROLINA...

CITY           SKY/WX    TMP DP  RH WIND       PRES   REMARKS
COLUMBIA APT   PTCLDY    83  72  69 S8        30.11R
COLUMBIA OWENS PTCLDY    82  71  69 S5        30.13R
DARLINGTON     CLEAR     82  70  65 S8        30.13R
FLORENCE       CLEAR     80  72  76 S7        30.12R
MCENTIRE ANGB  PTCLDY    76  72  87 SE5       30.13R
ORANGEBURG     CLEAR     77  72  84 S3        30.13R
SUMTER SHAW    CLEAR     79  72  78 S7        30.11R
NEWBERRY       MOCLDY    79  72  78 S5        30.14S
BARNWELL       FAIR      81  73  78 S7        30.13S
MANNING        FAIR      79  70  73 S6        30.14R
CAMDEN         FAIR      81  72  74 S7        30.13R
LANCASTER      PTCLDY    81  72  74 CALM      30.11R
WINNSBORO      PTCLDY    81  70  69 SE6       30.12R


...EASTERN AND COASTAL SOUTH CAROLINA...

CITY           SKY/WX    TMP DP  RH WIND       PRES   REMARKS
MYRTLE BEACH   CLEAR     81  72  74 SW7       30.15R
N MYRTLE BCH   CLEAR     81  75  82 SW13      30.14R
CONWAY         FAIR      77  77 100 CALM      30.14R FOG
MARION         FAIR      79  70  73 S5        30.13R
HARTSVILLE     FAIR      79  72  78 S5        30.12R
FLORENCE       CLEAR     80  72  76 S7        30.12R
DARLINGTON     CLEAR     82  70  65 S8        30.13R
CHARLESTON APT PTCLDY    77  73  87 S5        30.14R
MOUNT PLEASANT LGT RAIN  81  75  83 S5        30.14R
WALTERBORO     PTCLDY    75  72  88 S5        30.15R
BEAUFORT       MOCLDY    79  74  84 VRB5      30.14R


...EASTERN GEORGIA...

CITY           SKY/WX    TMP DP  RH WIND       PRES   REMARKS
AUGUSTA BUSH F PTCLDY    78  73  84 CALM      30.11R
AUGUSTA DANIEL PTCLDY    86  70  58 S3        30.13R
THOMSON        PTCLDY    80  79  97 CALM      30.17R
WASHINGTON     FAIR      81  79  94 CALM      30.13R
CLAXTON        FAIR      75  72  88 CALM      30.15R
SYLVANIA       PTCLDY    80  74  81 CALM      30.16R
SAVANNAH       CLOUDY    76  72  87 CALM      30.15R


...SOUTHERN NORTH CAROLINA...

CITY           SKY/WX    TMP DP  RH WIND       PRES   REMARKS
CHARLOTTE      PTCLDY    82  66  58 SW7       30.10R
MONROE         PTCLDY    81  67  62 VRB5      30.10R
WADESBORO      PTCLDY    83  69  61 S7        30.09R
ROCKINGHAM     PTCLDY    82  72  71 S8        30.11R
RUTHERFORDTON  MOCLDY    77  67  72 CALM      30.12S
ASHEVILLE      MOCLDY    76  67  73 SE3       30.19R

$$


USA.gov is the U.S. government's official web portal to all federal, state and local government web resources and services.